Flag for Germany Weather past 2 weeks in Ettlingen, Baden-Württemberg, Germany

Now
84 °F

Sunny.


Feels Like: 82 °F
Forecast: 58 / 80 °F
Wind: 15 mph from Northeast

Location: Karlsruhe - Baden Wurttemberg

Current Time: Jul 23, 2014 at 5:50:27 PM

Latest Report: Jul 23, 2014 at 5:20 PM


Visibility: 10 mi

Pressure: 29.92 "Hg

Humidity: 31%

Dew point: 50 °F

Location of EttlingenLocation

Historic Weather in Ettlingen — Graph

°F

Ettlingen temperature yesterday

Maximum temperature yesterday: 77 °F (at 3:50 PM)
Minimum temperature yesterday: 64 °F (at 2:20 AM)
Average temperature yesterday: 70 °F

Past Weeks' High & Low Weather Summary

 TemperatureHumidityPressure
High93 °F (Jul 19, 5:20 PM)94% (Jul 9, 3:20 PM)30.18 "Hg (Jul 9, 3:20 PM)
Low54 °F (Jul 9, 8:50 PM)24% (Jul 18, 4:20 PM)29.74 "Hg (Jul 10, 4:50 AM)
Average70 °F69%29.95 "Hg
* Reported Jul 8 4:20 PM — Jul 23 4:20 PM, Ettlingen, Weather by CustomWeather, © 2014

Note: Actual official high and low records may vary slightly from our data, if they occured in-between our weather recording intervals... More about our weather records

Advertising

Ettlingen weather history for previous 24 hours

 ConditionsComfort  
Time TempWeatherWind HumidityBarometerVisibility
4:20 PM
Jul 23
84 °FSunny.16 mph35%29.92 "Hg10 mi
3:50 PM81 °FSunny.10 mph48%29.92 "Hg10 mi
2:50 PM81 °FSunny.12 mph45%29.95 "Hg10 mi
1:50 PM82 °FSunny.15 mph42%29.95 "Hg10 mi
1:20 PM81 °FPassing clouds.12 mph48%29.95 "HgN/A
12:50 PM79 °FSunny.13 mph51%29.98 "Hg10 mi
12:20 PM77 °FSunny.12 mph57%29.98 "Hg10 mi
11:50 AM77 °FPassing clouds.13 mph57%29.98 "HgN/A
11:20 AM75 °FPassing clouds.12 mph61%29.98 "HgN/A
7:20 AM66 °FSunny.8 mph83%29.98 "Hg10 mi
6:50 AM64 °FSunny.8 mph88%29.98 "Hg10 mi
6:20 AM63 °FClear.5 mph94%29.98 "Hg10 mi
5:50 AM63 °FClear.2 mph88%29.98 "Hg10 mi
5:20 AM63 °FClear.2 mph88%29.98 "Hg10 mi
4:50 AM63 °FClear.2 mph88%29.98 "Hg10 mi
6:50 PM
Jul 22
75 °FSunny.3 mph69%29.95 "Hg10 mi
6:20 PM75 °FPartly sunny.5 mph74%29.95 "HgN/A
5:50 PM77 °FScattered showers. Partly sunny.5 mph69%29.95 "HgN/A
5:20 PM75 °FScattered showers. Broken clouds.6 mph74%29.95 "HgN/A
Weather by CustomWeather, © 2014

See weather overviewHow to use our weather pages